Flag Weather past 2 weeks in Pirmasens, Rhineland-Palatinate, Germany

Now
41 °F

Low clouds.


Feels Like: 37 °F
Forecast: 38 / 41 °F
Wind: 6 mph from Northeast

Location: Ramstein

Current Time: Nov 27, 2014 at 6:00:19 AM

Latest Report: Nov 27, 2014 at 4:58 AM


Visibility: N/A

Pressure: 29.87 "Hg

Humidity: 88%

Dew point: 37 °F

Location of PirmasensLocation

Historic Weather in Pirmasens — Graph

°F

Pirmasens temperature yesterday

Maximum temperature yesterday: 43 °F (at 2:58 PM)
Minimum temperature yesterday: 39 °F (at 6:58 AM)
Average temperature yesterday: 41 °F

Past Weeks' High & Low Weather Summary

 TemperatureHumidityPressure
High57 °F (Nov 14, 1:58 PM)100% (Nov 12, 9:58 PM)30.33 "Hg (Nov 12, 9:58 PM)
Low34 °F (Nov 22, 11:04 PM)60% (Nov 24, 7:58 PM)29.56 "Hg (Nov 15, 4:01 AM)
Average45 °F90%29.97 "Hg
* Reported Nov 12 4:58 AM — Nov 27 4:58 AM, Pirmasens, Weather by CustomWeather, © 2014

Note: Actual official high and low records may vary slightly from our data, if they occured in-between our weather recording intervals... More about our weather records

Advertising

Pirmasens weather history for previous 24 hours

 ConditionsComfort  
Time TempWeatherWind HumidityBarometerVisibility
4:58 AM
Nov 27
41 °FLow clouds.6 mph87%29.87 "HgN/A
3:58 AM41 °FLow clouds.5 mph86%29.88 "HgN/A
2:58 AM41 °FLow clouds.6 mph87%29.90 "HgN/A
1:58 AM41 °FLow clouds.2 mph87%29.92 "HgN/A
12:58 AM41 °FLow clouds.3 mph87%29.93 "HgN/A
11:58 PM
Nov 26
41 °FLow clouds.5 mph89%29.95 "HgN/A
10:58 PM40 °FLow clouds.6 mph91%29.95 "HgN/A
9:58 PM41 °FLow clouds.6 mph90%29.96 "HgN/A
8:58 PM41 °FLow clouds.7 mph90%29.97 "HgN/A
7:58 PM41 °FLow clouds.7 mph87%29.97 "HgN/A
6:58 PM41 °FLow clouds.7 mph85%29.98 "HgN/A
5:58 PM41 °FLow clouds.9 mph87%29.98 "HgN/A
4:58 PM42 °FOvercast.7 mph82%29.98 "HgN/A
3:58 PM42 °FOvercast.8 mph81%29.98 "HgN/A
2:58 PM43 °FPartly sunny.9 mph76%29.99 "HgN/A
1:58 PM42 °FOvercast.8 mph79%30.00 "HgN/A
12:58 PM42 °FOvercast.10 mph79%30.01 "HgN/A
11:58 AM41 °FLow clouds.7 mph81%30.03 "HgN/A
10:58 AM41 °FOvercast.8 mph81%30.04 "HgN/A
9:58 AM41 °FOvercast.8 mph81%30.05 "Hg6 mi
8:58 AM40 °FOvercast.7 mph79%30.04 "HgN/A
7:59 AM39 °FOvercast.7 mph75%30.05 "Hg5 mi
6:58 AM39 °FOvercast.7 mph81%30.04 "Hg6 mi
Weather by CustomWeather, © 2014

See weather overviewHow to use our weather pages